Regional Weather Roundup
Issued by NWS

Current Version | Previous Version | Text Only | Print | Product List | Glossary Off
Versions: 1 2 3 4 5 6 7 8 9 10 11 12 13 14 15 16 17 18 19 20 21 22 23 24 25 26 27 28 29 30 31 32 33 34 35 36 37 38 39 40 41 42 43 44 45 46 47 48 49 50

000
ASUS42 KFFC 150203
RWRGA
WEATHER ROUNDUP FOR GEORGIA
NATIONAL WEATHER SERVICE PEACHTREE CITY GA
1000 PM EDT SUN SEP 14 2014

NOTE: "FAIR" INDICATES FEW OR NO CLOUDS BELOW 12,000 FEET WITH NO
SIGNIFICANT WEATHER AND/OR OBSTRUCTIONS TO VISIBILITY.

* = USE WITH CAUTION. THE STATIONS MARKED WITH AN ASTERISK MAY NOT
REPORT WEATHER SUCH AS PRECIPITATION, FOG, OR THUNDER AND ARE NOT
QUALITY CONTROLLED BY NWS.

THE REMARK "TC" DENOTES TEMPERATURE READING IN DEGREES CELSIUS.

GAZ001>058-150300-
NORTH GEORGIA

CITY           SKY/WX    TMP DP  RH WIND       PRES   REMARKS
ATLANTA        CLOUDY    67  65  93 E7        30.22R
ATHENS         CLOUDY    66  63  90 CALM      30.23R
CHAMBLEE       CLOUDY    65  62  90 E6        30.23R
PEACHTREE CITY CLOUDY    70  66  87 E7        30.21R
ROME           CLEAR     69  65  86 SE6       30.19R
WEST ATLANTA   CLOUDY    69  64  84 E7        30.21R
GAINESVILLE    CLOUDY    63  62  97 E7        30.26R
CARTERSVILLE   CLOUDY    68  64  87 E6        30.21R


CITY           SKY/WX    TMP DP  RH WIND       PRES   REMARKS
DALTON*        CLEAR     68  68 100 CALM      30.19S
MARIETTA       CLOUDY    66  65  94 E7        30.23R
KENNESAW*      CLOUDY    66  63  88 SE9       30.24R FOG
$$

GAZ059>098-102>109-150300-
CENTRAL GEORGIA

CITY           SKY/WX    TMP DP  RH WIND       PRES   REMARKS
AUGUSTA-BUSH   CLOUDY    73  67  81 CALM      30.20R
AUGUSTA-DANIEL CLOUDY    73  67  81 NE5       30.21R
COLUMBUS       PTCLDY    75  73  93 E8        30.15R
MACON          CLOUDY    73  72  96 E8        30.17R
ROBINS AFB     CLOUDY    74  71  89 VRB3      30.17R


CITY           SKY/WX    TMP DP  RH WIND       PRES   REMARKS
LAGRANGE*      DRIZZLE   76  74  96 CALM      30.19R
SYLVANIA*      TSTM      77  75  93 NE6       30.20R VSB 3/4
$$

GAZ099>101-110>166-150300-
SOUTH GEORGIA

CITY           SKY/WX    TMP DP  RH WIND       PRES   REMARKS
SAVANNAH       CLOUDY    81  74  79 CALM      30.18R
VALDOSTA       CLOUDY    81  73  76 NE5       30.14R
ALMA           CLOUDY    77  73  87 E3        30.16R
ST SIMONS      CLOUDY    82  74  76 SE9       30.16R
FT STEWART     DRIZZLE   79  75  86 CALM      30.16R
ALBANY         PTCLDY    77  71  82 SE5       30.14S
HUNTER AFB     CLOUDY    80  75  83 NE2       30.16R
MOODY AFB      CLOUDY    78  73  82 NE7       30.14R
BRUNSWICK      CLOUDY    81  73  78 CALM      30.17R


CITY           SKY/WX    TMP DP  RH WIND       PRES   REMARKS
BAINBRIDGE*    CLOUDY    79  77  94 CALM      30.13S
MOULTRIE*      PTCLDY    77  73  88 NE5       30.15S
VIDALIA*       CLOUDY    73  72  94 NE5       30.19R
WAYCROSS*      MOCLDY    82  78  88 SE5       30.16R HX  90
DOUGLAS*       CLOUDY    79  73  83 CALM      30.17R
$$



USA.gov is the U.S. government's official web portal to all federal, state and local government web resources and services.